Tracking 23764 objects as of 18-Oct-2021
HD Live streaming from Space Station
objects crossing your sky now

STF-1

Track STF-1 now!
10-day predictions


NORAD ID: 43852
Int'l Code: 2018-104D
Perigee: 492.4 km
Apogee: 515.3 km
Inclination: 85.0 °
Period: 94.5 minutes
Semi major axis: 6874 km
RCS: Unknown
Launch date: December 16, 2018
Source: United States (US)
Launch site: Rocket Lab Launch Complex (RLLC)
aabbcc
Your satellite tracking list
Your tracking list is empty




NASA's NSSDC Master Catalog

Two Line Element Set (TLE):
1 43852U 18104D   21290.26407226  .00003569  00000-0  14951-3 0  9995
2 43852  85.0364 213.9566 0016595  93.3339 266.9802 15.23028496157497
Source of the keplerian elements: AFSPC